Time,TemperatureF,DewpointF,PressureIn,WindDirection,WindDirectionDegrees,WindSpeedMPH,WindSpeedGustMPH,Humidity,HourlyPrecipIn,Conditions,Clouds,dailyrainin,SoftwareType,DateUTC
2013-07-13 00:11:00,77.0,70.0,29.89,ENE,71,1.0,-999.0,78,-99.99,,,0.00,weatherlink.com 1.10,2013-07-13 04:11:00,
2013-07-13 00:26:00,76.9,70.0,29.89,ESE,110,0.0,-999.0,79,-99.99,,,0.00,weatherlink.com 1.10,2013-07-13 04:26:00,
2013-07-13 00:41:00,76.7,70.0,29.89,ESE,117,1.0,-999.0,80,-99.99,,,0.00,weatherlink.com 1.10,2013-07-13 04:41:00,
2013-07-13 00:56:00,76.5,70.0,29.89,SE,145,2.0,-999.0,81,-99.99,,,0.00,weatherlink.com 1.10,2013-07-13 04:56:00,
2013-07-13 01:11:00,76.2,70.0,29.88,SE,136,0.0,-999.0,81,-99.99,,,0.00,weatherlink.com 1.10,2013-07-13 05:11:00,
2013-07-13 01:26:00,76.1,70.0,29.88,SSE,148,0.0,-999.0,81,-99.99,,,0.00,weatherlink.com 1.10,2013-07-13 05:26:00,
2013-07-13 01:41:00,76.1,70.0,29.87,SE,127,1.0,-999.0,81,-99.99,,,0.00,weatherlink.com 1.10,2013-07-13 05:41:00,
2013-07-13 01:56:00,76.1,70.0,29.87,SSE,157,1.0,-999.0,82,-99.99,,,0.00,weatherlink.com 1.10,2013-07-13 05:56:00,
2013-07-13 02:11:00,76.1,70.0,29.86,SSE,152,5.0,-999.0,82,-99.99,,,0.00,weatherlink.com 1.10,2013-07-13 06:11:00,
2013-07-13 02:26:00,76.2,70.0,29.86,SE,140,2.0,-999.0,82,-99.99,,,0.00,weatherlink.com 1.10,2013-07-13 06:26:00,
2013-07-13 02:41:00,76.4,71.0,29.86,SE,142,5.0,-999.0,82,-99.99,,,0.00,weatherlink.com 1.10,2013-07-13 06:41:00,
2013-07-13 02:56:00,76.3,70.0,29.86,SSE,147,4.0,-999.0,82,-99.99,,,0.00,weatherlink.com 1.10,2013-07-13 06:56:00,
2013-07-13 03:11:00,76.2,70.0,29.87,SSE,149,5.0,-999.0,82,-99.99,,,0.00,weatherlink.com 1.10,2013-07-13 07:11:00,
2013-07-13 03:26:00,76.2,70.0,29.86,SSE,154,4.0,-999.0,82,-99.99,,,0.00,weatherlink.com 1.10,2013-07-13 07:26:00,
2013-07-13 03:41:00,76.1,70.0,29.86,SE,146,0.0,-999.0,82,-99.99,,,0.01,weatherlink.com 1.10,2013-07-13 07:41:00,
2013-07-13 03:56:00,76.0,70.0,29.86,ESE,123,2.0,-999.0,82,-99.99,,,0.01,weatherlink.com 1.10,2013-07-13 07:56:00,
2013-07-13 04:11:00,75.9,70.0,29.86,SE,132,2.0,-999.0,82,-99.99,,,0.01,weatherlink.com 1.10,2013-07-13 08:11:00,
2013-07-13 04:26:00,75.8,70.0,29.86,SSE,149,2.0,-999.0,83,-99.99,,,0.01,weatherlink.com 1.10,2013-07-13 08:26:00,
2013-07-13 04:41:00,75.9,70.0,29.86,SSE,153,1.0,-999.0,83,-99.99,,,0.01,weatherlink.com 1.10,2013-07-13 08:41:00,
2013-07-13 04:56:00,75.9,70.0,29.86,South,171,1.0,-999.0,83,-99.99,,,0.01,weatherlink.com 1.10,2013-07-13 08:56:00,
2013-07-13 05:11:00,75.9,70.0,29.87,SE,138,0.0,-999.0,83,-99.99,,,0.01,weatherlink.com 1.10,2013-07-13 09:11:00,
2013-07-13 05:26:00,75.8,70.0,29.87,SE,126,0.0,-999.0,83,-99.99,,,0.01,weatherlink.com 1.10,2013-07-13 09:26:00,
2013-07-13 05:41:00,75.9,70.0,29.87,East,88,1.0,-999.0,83,-99.99,,,0.01,weatherlink.com 1.10,2013-07-13 09:41:00,
2013-07-13 05:56:00,75.9,70.0,29.87,SE,138,4.0,-999.0,83,-99.99,,,0.01,weatherlink.com 1.10,2013-07-13 09:56:00,
2013-07-13 06:11:00,75.9,70.0,29.87,SE,145,0.0,-999.0,82,-99.99,,,0.01,weatherlink.com 1.10,2013-07-13 10:11:00,
2013-07-13 06:26:00,75.9,70.0,29.87,SSE,148,1.0,-999.0,82,-99.99,,,0.01,weatherlink.com 1.10,2013-07-13 10:26:00,
2013-07-13 06:41:00,75.8,70.0,29.86,SSE,148,0.0,-999.0,82,-99.99,,,0.01,weatherlink.com 1.10,2013-07-13 10:41:00,
2013-07-13 06:56:00,75.7,70.0,29.86,SSE,148,0.0,-999.0,82,-99.99,,,0.01,weatherlink.com 1.10,2013-07-13 10:56:00,
2013-07-13 07:11:00,76.1,70.0,29.86,SSE,148,0.0,-999.0,82,-99.99,,,0.01,weatherlink.com 1.10,2013-07-13 11:11:00,
2013-07-13 07:26:00,76.5,70.0,29.86,SSE,148,0.0,-999.0,81,-99.99,,,0.01,weatherlink.com 1.10,2013-07-13 11:26:00,
2013-07-13 07:41:00,76.9,71.0,29.86,SSE,148,0.0,-999.0,81,-99.99,,,0.01,weatherlink.com 1.10,2013-07-13 11:41:00,
2013-07-13 07:56:00,77.1,71.0,29.86,ESE,107,0.0,-999.0,80,-99.99,,,0.01,weatherlink.com 1.10,2013-07-13 11:56:00,
2013-07-13 08:11:00,77.5,71.0,29.87,ESE,119,0.0,-999.0,80,-99.99,,,0.01,weatherlink.com 1.10,2013-07-13 12:11:00,
2013-07-13 08:26:00,78.2,72.0,29.87,SE,143,5.0,-999.0,80,-99.99,,,0.01,weatherlink.com 1.10,2013-07-13 12:26:00,
2013-07-13 08:41:00,79.8,73.0,29.88,SSE,153,6.0,-999.0,79,-99.99,,,0.01,weatherlink.com 1.10,2013-07-13 12:41:00,
2013-07-13 08:56:00,81.3,74.0,29.89,South,190,3.0,-999.0,78,-99.99,,,0.01,weatherlink.com 1.10,2013-07-13 12:56:00,
2013-07-13 09:12:00,82.4,75.0,29.89,SSW,196,6.0,-999.0,77,-99.99,,,0.01,weatherlink.com 1.10,2013-07-13 13:12:00,
2013-07-13 09:27:00,82.9,75.0,29.90,SE,145,8.0,-999.0,76,-99.99,,,0.01,weatherlink.com 1.10,2013-07-13 13:27:00,
2013-07-13 09:42:00,84.2,76.0,29.90,SSW,193,1.0,-999.0,75,-99.99,,,0.01,weatherlink.com 1.10,2013-07-13 13:42:00,
2013-07-13 09:57:00,85.1,76.0,29.90,SSE,158,2.0,-999.0,74,-99.99,,,0.01,weatherlink.com 1.10,2013-07-13 13:57:00,
2013-07-13 10:12:00,85.2,76.0,29.90,SSE,153,4.0,-999.0,74,-99.99,,,0.01,weatherlink.com 1.10,2013-07-13 14:12:00,
2013-07-13 10:27:00,86.0,76.0,29.90,SSW,198,7.0,-999.0,72,-99.99,,,0.01,weatherlink.com 1.10,2013-07-13 14:27:00,
2013-07-13 10:42:00,85.0,75.0,29.90,South,188,7.0,-999.0,72,-99.99,,,0.01,weatherlink.com 1.10,2013-07-13 14:42:00,
2013-07-13 10:57:00,83.2,73.0,29.91,SSW,198,4.0,-999.0,71,-99.99,,,0.01,weatherlink.com 1.10,2013-07-13 14:57:00,
2013-07-13 11:12:00,82.6,73.0,29.91,South,175,11.0,-999.0,72,-99.99,,,0.01,weatherlink.com 1.10,2013-07-13 15:12:00,
2013-07-13 11:27:00,83.6,74.0,29.91,South,191,5.0,-999.0,72,-99.99,,,0.01,weatherlink.com 1.10,2013-07-13 15:27:00,
2013-07-13 11:42:00,82.3,73.0,29.91,SSE,157,5.0,-999.0,74,-99.99,,,0.01,weatherlink.com 1.10,2013-07-13 15:42:00,
2013-07-13 11:57:00,79.9,72.0,29.91,SSW,207,8.0,-999.0,76,-99.99,,,0.01,weatherlink.com 1.10,2013-07-13 15:57:00,
2013-07-13 12:12:00,78.7,71.0,29.92,SSE,156,4.0,-999.0,78,-99.99,,,0.01,weatherlink.com 1.10,2013-07-13 16:12:00,
2013-07-13 12:27:00,77.9,71.0,29.92,SE,134,4.0,-999.0,80,-99.99,,,0.01,weatherlink.com 1.10,2013-07-13 16:27:00,
2013-07-13 12:42:00,77.8,72.0,29.92,SSE,160,0.0,-999.0,81,-99.99,,,0.01,weatherlink.com 1.10,2013-07-13 16:42:00,
2013-07-13 12:57:00,77.6,71.0,29.92,SE,129,2.0,-999.0,81,-99.99,,,0.01,weatherlink.com 1.10,2013-07-13 16:57:00,
2013-07-13 13:12:00,78.0,72.0,29.91,SE,145,2.0,-999.0,81,-99.99,,,0.01,weatherlink.com 1.10,2013-07-13 17:12:00,
2013-07-13 13:27:00,79.6,73.0,29.90,SE,145,0.0,-999.0,81,-99.99,,,0.01,weatherlink.com 1.10,2013-07-13 17:27:00,
2013-07-13 13:42:00,81.7,75.0,29.91,East,96,2.0,-999.0,79,-99.99,,,0.01,weatherlink.com 1.10,2013-07-13 17:42:00,
2013-07-13 13:57:00,82.6,75.0,29.91,SSW,192,3.0,-999.0,77,-99.99,,,0.01,weatherlink.com 1.10,2013-07-13 17:57:00,
2013-07-13 14:12:00,81.9,74.0,29.91,SSE,161,2.0,-999.0,78,-99.99,,,0.01,weatherlink.com 1.10,2013-07-13 18:12:00,
2013-07-13 14:27:00,82.3,75.0,29.92,SE,127,0.0,-999.0,78,-99.99,,,0.01,weatherlink.com 1.10,2013-07-13 18:27:00,
2013-07-13 14:42:00,82.9,75.0,29.91,SSE,167,2.0,-999.0,78,-99.99,,,0.01,weatherlink.com 1.10,2013-07-13 18:42:00,
2013-07-13 14:57:00,83.0,75.0,29.89,SE,128,2.0,-999.0,77,-99.99,,,0.01,weatherlink.com 1.10,2013-07-13 18:57:00,
2013-07-13 15:12:00,81.6,74.0,29.89,SW,227,6.0,-999.0,78,-99.99,,,0.01,weatherlink.com 1.10,2013-07-13 19:12:00,
2013-07-13 15:27:00,80.9,74.0,29.88,ESE,120,2.0,-999.0,79,-99.99,,,0.01,weatherlink.com 1.10,2013-07-13 19:27:00,
2013-07-13 15:42:00,81.5,74.0,29.88,East,98,2.0,-999.0,78,-99.99,,,0.01,weatherlink.com 1.10,2013-07-13 19:42:00,
2013-07-13 15:57:00,82.7,75.0,29.88,South,169,2.0,-999.0,77,-99.99,,,0.01,weatherlink.com 1.10,2013-07-13 19:57:00,
2013-07-13 16:12:00,83.5,75.0,29.89,SSE,152,5.0,-999.0,76,-99.99,,,0.01,weatherlink.com 1.10,2013-07-13 20:12:00,
2013-07-13 16:27:00,84.1,75.0,29.89,SSE,161,0.0,-999.0,75,-99.99,,,0.01,weatherlink.com 1.10,2013-07-13 20:27:00,
2013-07-13 16:42:00,85.2,76.0,29.89,SSE,167,1.0,-999.0,74,-99.99,,,0.01,weatherlink.com 1.10,2013-07-13 20:42:00,
2013-07-13 16:57:00,85.9,76.0,29.89,SSW,213,3.0,-999.0,72,-99.99,,,0.01,weatherlink.com 1.10,2013-07-13 20:57:00,
2013-07-13 17:12:00,85.4,75.0,29.89,SSW,204,5.0,-999.0,72,-99.99,,,0.01,weatherlink.com 1.10,2013-07-13 21:12:00,
2013-07-13 17:27:00,85.3,75.0,29.88,SSW,196,1.0,-999.0,72,-99.99,,,0.01,weatherlink.com 1.10,2013-07-13 21:27:00,
2013-07-13 17:42:00,85.1,75.0,29.88,South,182,1.0,-999.0,72,-99.99,,,0.01,weatherlink.com 1.10,2013-07-13 21:42:00,
2013-07-13 17:57:00,83.3,75.0,29.87,WSW,240,3.0,-999.0,75,-99.99,,,0.01,weatherlink.com 1.10,2013-07-13 21:57:00,
2013-07-13 18:12:00,83.2,75.0,29.88,SSE,159,2.0,-999.0,76,-99.99,,,0.01,weatherlink.com 1.10,2013-07-13 22:12:00,
2013-07-13 18:27:00,82.6,75.0,29.87,SSE,155,4.0,-999.0,77,-99.99,,,0.01,weatherlink.com 1.10,2013-07-13 22:27:00,
2013-07-13 18:42:00,82.1,74.0,29.88,ESE,109,2.0,-999.0,77,-99.99,,,0.01,weatherlink.com 1.10,2013-07-13 22:42:00,
2013-07-13 18:57:00,81.6,74.0,29.87,ESE,103,5.0,-999.0,77,-99.99,,,0.01,weatherlink.com 1.10,2013-07-13 22:57:00,
2013-07-13 19:12:00,81.5,74.0,29.87,ESE,111,0.0,-999.0,77,-99.99,,,0.01,weatherlink.com 1.10,2013-07-13 23:12:00,
2013-07-13 19:27:00,81.5,74.0,29.88,ESE,105,0.0,-999.0,78,-99.99,,,0.01,weatherlink.com 1.10,2013-07-13 23:27:00,
2013-07-13 19:42:00,81.0,74.0,29.89,NE,39,12.0,-999.0,78,-99.99,,,0.01,weatherlink.com 1.10,2013-07-13 23:42:00,
2013-07-13 19:57:00,79.0,73.0,29.89,NE,47,11.0,-999.0,81,-99.99,,,0.01,weatherlink.com 1.10,2013-07-13 23:57:00,
2013-07-13 20:12:00,79.7,73.0,29.89,NNE,30,8.0,-999.0,80,-99.99,,,0.01,weatherlink.com 1.10,2013-07-14 00:12:00,
2013-07-13 20:27:00,79.6,73.0,29.89,NE,44,0.0,-999.0,80,-99.99,,,0.01,weatherlink.com 1.10,2013-07-14 00:27:00,
2013-07-13 20:42:00,79.5,73.0,29.91,SSW,192,1.0,-999.0,80,-99.99,,,0.01,weatherlink.com 1.10,2013-07-14 00:42:00,
2013-07-13 20:57:00,78.6,72.0,29.92,SW,217,0.0,-999.0,79,-99.99,,,0.01,weatherlink.com 1.10,2013-07-14 00:57:00,
2013-07-13 21:12:00,77.9,71.0,29.91,WSW,246,0.0,-999.0,80,-99.99,,,0.01,weatherlink.com 1.10,2013-07-14 01:12:00,
2013-07-13 21:27:00,77.5,71.0,29.91,WSW,246,0.0,-999.0,80,-99.99,,,0.01,weatherlink.com 1.10,2013-07-14 01:27:00,
2013-07-13 21:42:00,77.7,71.0,29.92,WSW,246,0.0,-999.0,80,-99.99,,,0.01,weatherlink.com 1.10,2013-07-14 01:42:00,
2013-07-13 21:57:00,77.8,72.0,29.92,ESE,107,0.0,-999.0,81,-99.99,,,0.01,weatherlink.com 1.10,2013-07-14 01:57:00,
2013-07-13 22:12:00,77.6,71.0,29.92,ESE,110,0.0,-999.0,81,-99.99,,,0.01,weatherlink.com 1.10,2013-07-14 02:12:00,
2013-07-13 22:27:00,77.2,71.0,29.93,SSE,154,0.0,-999.0,81,-99.99,,,0.01,weatherlink.com 1.10,2013-07-14 02:27:00,
2013-07-13 22:42:00,77.1,71.0,29.93,ESE,107,0.0,-999.0,82,-99.99,,,0.01,weatherlink.com 1.10,2013-07-14 02:42:00,
2013-07-13 22:57:00,76.8,71.0,29.93,ESE,115,0.0,-999.0,82,-99.99,,,0.01,weatherlink.com 1.10,2013-07-14 02:57:00,
2013-07-13 23:12:00,76.5,71.0,29.93,SE,131,4.0,-999.0,83,-99.99,,,0.01,weatherlink.com 1.10,2013-07-14 03:12:00,
2013-07-13 23:27:00,76.4,71.0,29.93,ESE,107,1.0,-999.0,83,-99.99,,,0.01,weatherlink.com 1.10,2013-07-14 03:27:00,
2013-07-13 23:42:00,76.1,71.0,29.93,ESE,111,1.0,-999.0,83,-99.99,,,0.01,weatherlink.com 1.10,2013-07-14 03:42:00,
2013-07-13 23:57:00,75.9,70.0,29.93,East,101,1.0,-999.0,83,-99.99,,,0.01,weatherlink.com 1.10,2013-07-14 03:57:00,